Location: Sternwarte_Laufen
(47.9344°N, 12.9346°E)
Time: 08:15:54
(UTC+01:00)

BlueWalker 3 - Pass Details

Date: 09 February 2023
Orbit: 497 x 515 km, 53.2° (Epoch: 23 March)

Event Time Altitude Azimuth Distance (km) Brightness Sun altitude
Rises 19:15:43 0° 297° (WNW) 2,607 6.7 -19.6°
Reaches altitude 10° 19:17:55 10° 293° (WNW) 1,723 5.6 -20.0°
Maximum altitude 19:21:45 58° 214° (SW) 595 2.4 -20.7°
Enters shadow 19:22:39 45° 163° (SSE) 704 2.5 -20.8°
